Location: Unspecified
(35.7250°N, 0.0000°E)
Time: 05:36:15
(UTC+00:00)

Vanguard 1 Rocket - Pass Details

Date: 17 June 2019
Orbit: 650 x 4226 km, 34.3° (Epoch: 12 October)

Event Time Altitude Azimuth Distance (km) Brightness Sun altitude
Rises 23:37:40 0° 278° (W) 3,708 10.7 -30.6°
Reaches altitude 10° 23:40:53 10° 269° (W) 2,432 9.6 -30.7°
Enters shadow 23:40:57 10° 269° (W) 2,406 9.6 -30.7°
Maximum altitude 23:45:29 31° 207° (SSW) 1,180 - -30.8°
Drops below altitude 10° 23:49:22 10° 143° (SE) 2,039 - -30.8°
Sets 23:51:49 0° 132° (SE) 3,004 - -30.8°
